DW5686 Weather Reports


Display with metric or nautical units.
time (UTC)temp
F
wind
direction
speed
MPH
gust
MPH
rain 1hr
in
rain 24hr
in
rain mn
in
humidity
%
barometer
mb
20260903072003 75 0 0.0 1.0 0.00 0.00 0.00 89 1016.9
20260903071503 75 0 0.0 1.0 0.00 0.00 0.00 89 1016.9
20260903071024 75 172 0.0 1.0 0.00 0.00 0.00 89 1016.8
20260903070502 76 172 0.0 1.0 0.00 0.00 0.00 88 1016.8
20260903070003 76 0 0.0 1.0 0.00 0.00 0.00 88 1016.8
20260903065503 76 0 0.0 2.0 0.00 0.00 0.00 88 1016.8
20260903065023 76 0 0.0 2.0 0.00 0.00 0.00 87 1016.9
20260903064503 76 172 1.0 2.0 0.00 0.00 0.00 87 1016.9
20260903064002 76 0 0.0 1.0 0.00 0.00 0.00 87 1016.9
20260903063503 76 172 0.0 1.0 0.00 0.00 0.00 87 1016.8
20260903063002 76 172 0.0 1.0 0.00 0.00 0.00 87 1016.8
20260903062503 76 0 0.0 0.0 0.00 0.00 0.00 86 1016.9
20260903062002 76 0 0.0 1.0 0.00 0.00 0.00 86 1016.9
20260903061502 76 0 0.0 2.0 0.00 0.00 0.00 86 1016.7
20260903061023 76 172 0.0 2.0 0.00 0.00 0.00 86 1016.7
20260903060524 76 172 1.0 2.0 0.00 0.00 0.00 86 1016.7
20260903060003 77 172 0.0 2.0 0.00 0.00 0.00 86 1016.8
20260903055503 77 0 0.0 0.0 0.00 0.00 0.00 86 1016.8
20260903055002 77 0 0.0 0.0 0.00 0.00 0.00 84 1016.8
20260903054502 77 0 0.0 0.0 0.00 0.00 0.00 84 1016.8
20260903054003 77 0 0.0 0.0 0.00 0.00 0.00 84 1017.1
20260903053523 77 0 0.0 0.0 0.00 0.00 0.00 84 1017.0
20260903053002 77 0 0.0 0.0 0.00 0.00 0.00 84 1016.9
20260903052502 77 0 0.0 0.0 0.00 0.00 0.00 84 1016.9
20260903052002 77 0 0.0 0.0 0.00 0.00 0.00 84 1016.8
20260903051523 78 0 0.0 0.0 0.00 0.00 0.00 83 1016.9
20260903051003 78 0 0.0 0.0 0.00 0.00 0.00 83 1016.9
20260903050502 78 0 0.0 0.0 0.00 0.00 0.00 83 1016.9
20260903050003 78 0 0.0 0.0 0.00 0.00 0.00 82 1016.9
20260903045503 78 0 0.0 1.0 0.00 0.00 0.00 82 1016.9
20260903045002 78 172 0.0 1.0 0.00 0.00 0.00 82 1017.0
20260903044503 78 172 0.0 1.0 0.00 0.00 0.00 82 1017.0
20260903044002 78 172 0.0 1.0 0.00 0.00 0.00 82 1017.0
20260903043502 78 172 0.0 1.0 0.00 0.00 0.00 81 1016.8
20260903043002 78 0 0.0 1.0 0.00 0.00 0.00 81 1016.9
20260903042503 78 172 0.0 2.0 0.00 0.00 0.00 79 1016.9
20260903042002 78 172 1.0 2.0 0.00 0.00 0.00 81 1017.1
20260903041503 78 172 0.0 2.0 0.00 0.00 0.00 79 1017.2
20260903041002 78 0 0.0 1.0 0.00 0.00 0.00 79 1017.2
20260903040502 79 172 0.0 1.0 0.00 0.00 0.00 79 1017.3
20260903040002 79 0 0.0 2.0 0.00 0.00 0.00 78 1017.2
20260903035523 79 172 1.0 2.0 0.00 0.00 0.00 78 1017.3
20260903035003 79 172 1.0 2.0 0.00 0.00 0.00 78 1017.3
20260903034503 79 0 0.0 0.0 0.00 0.00 0.00 77 1017.3
20260903034003 79 0 0.0 0.0 0.00 0.00 0.00 78 1017.3
20260903033524 79 0 0.0 0.0 0.00 0.00 0.00 78 1017.4
20260903033024 79 0 0.0 0.0 0.00 0.00 0.00 78 1017.5
20260903032502 80 0 0.0 0.0 0.00 0.00 0.00 78 1017.6
20260903032024 80 0 0.0 2.0 0.00 0.00 0.00 77 1017.6
20260903031504 80 172 1.0 2.0 0.00 0.00 0.00 77 1017.7
20260903031003 80 172 2.0 2.0 0.00 0.00 0.00 77 1017.6
20260903030502 80 172 0.0 1.0 0.00 0.00 0.00 77 1017.7
20260903030003 80 0 0.0 0.0 0.00 0.00 0.00 76 1017.7
20260903025502 80 0 0.0 0.0 0.00 0.00 0.00 76 1017.9
20260903025002 80 0 0.0 0.0 0.00 0.00 0.00 76 1017.9
20260903024503 80 0 0.0 0.0 0.00 0.00 0.00 76 1018.0
20260903024003 80 0 0.0 0.0 0.00 0.00 0.00 75 1018.0
20260903023503 80 0 0.0 0.0 0.00 0.00 0.00 75 1018.1
20260903023003 81 0 0.0 0.0 0.00 0.00 0.00 75 1017.9
20260903022503 81 0 0.0 0.0 0.00 0.00 0.00 75 1017.9
20260903022002 81 0 0.0 0.0 0.00 0.00 0.00 75 1018.0
20260903021524 81 0 0.0 0.0 0.00 0.00 0.00 75 1018.0
20260903021002 81 0 0.0 0.0 0.00 0.00 0.00 75 1018.0
20260903020502 81 0 0.0 0.0 0.00 0.00 0.00 74 1018.0
20260903020004 82 0 0.0 0.0 0.00 0.00 0.00 74 1017.9
20260903015503 82 0 0.0 0.0 0.00 0.00 0.00 74 1017.9
20260903015003 82 0 0.0 1.0 0.00 0.00 0.00 72 1017.8
20260903014503 82 172 0.0 4.0 0.00 0.00 0.00 71 1017.8
20260903014003 83 172 1.0 7.0 0.00 0.00 0.00 71 1017.6
20260903013502 83 178 3.0 7.0 0.00 0.00 0.00 71 1017.5
20260903013025 82 0 0.0 0.0 0.00 0.00 0.00 70 1017.5
20260903012502 82 0 0.0 1.0 0.00 0.00 0.00 69 1017.3
20260903012003 82 0 0.0 1.0 0.00 0.00 0.00 69 1017.3
20260903011503 83 0 0.0 0.0 0.00 0.00 0.00 68 1017.3
20260903011002 83 0 0.0 0.0 0.00 0.00 0.00 68 1017.3
20260903010503 83 0 0.0 0.0 0.00 0.00 0.00 67 1017.2
20260903010004 84 0 0.0 2.0 0.00 0.00 0.00 65 1017.2
20260903005502 84 23 0.0 2.0 0.00 0.00 0.00 65 1017.1
20260903005003 84 23 2.0 2.0 0.00 0.00 0.00 65 1017.1
20260903004502 84 23 0.0 6.0 0.00 0.00 0.00 65 1017.0
20260903004024 84 23 0.0 6.0 0.00 0.00 0.00 64 1017.0
20260903003503 84 0 0.0 0.0 0.00 0.00 0.00 64 1017.1
20260903003024 84 0 0.0 0.0 0.00 0.00 0.00 64 1017.0
20260903002503 85 0 0.0 0.0 0.00 0.00 0.00 64 1017.0
20260903002003 85 0 0.0 0.0 0.00 0.00 0.00 63 1016.9
20260903001504 85 0 0.0 0.0 0.00 0.00 0.00 63 1016.9
20260903001002 86 0 0.0 1.0 0.00 0.00 0.00 62 1017.0
20260903000504 86 0 0.0 1.0 0.00 0.00 0.00 61 1016.9
20260903000003 86 0 0.0 3.0 0.00 0.00 0.00 61 1016.8
20260902235503 86 23 1.0 3.0 0.00 0.00 0.00 61 1016.7
20260902235002 86 23 0.0 1.0 0.00 0.00 0.00 60 1016.7
20260902234502 87 0 0.0 2.0 0.00 0.00 0.00 60 1016.6
20260902234002 87 23 0.0 4.0 0.00 0.00 0.00 59 1016.7
20260902233503 88 23 2.0 4.0 0.00 0.00 0.00 58 1016.7
20260902233003 88 23 2.0 2.0 0.00 0.00 0.00 58 1016.7
20260902232502 88 23 1.0 2.0 0.00 0.00 0.00 56 1016.7
20260902232025 89 23 0.0 4.0 0.00 0.00 0.00 56 1016.7
20260902231523 90 23 1.0 4.0 0.00 0.00 0.00 53 1016.7
20260902231003 90 23 1.0 5.0 0.00 0.00 0.00 52 1016.8
20260902230524 91 3 2.0 5.0 0.00 0.00 0.00 50 1016.7
20260902230003 91 25 2.0 6.0 0.00 0.00 0.00 50 1016.8
20260902225504 91 7 3.0 6.0 0.00 0.00 0.00 48 1016.7
20260902225024 91 349 2.0 4.0 0.00 0.00 0.00 50 1016.7
20260902224503 92 349 1.0 4.0 0.00 0.00 0.00 49 1016.7
20260902224024 92 348 0.0 3.0 0.00 0.00 0.00 49 1016.7
20260902223503 92 348 1.0 3.0 0.00 0.00 0.00 49 1016.6
20260902223003 92 348 1.0 3.0 0.00 0.00 0.00 46 1016.7
20260902222502 92 348 0.0 2.0 0.00 0.00 0.00 48 1016.7
20260902222002 92 348 0.0 4.0 0.00 0.00 0.00 48 1016.8
20260902221504 92 348 1.0 4.0 0.00 0.00 0.00 46 1016.7
20260902221002 93 348 2.0 5.0 0.00 0.00 0.00 47 1016.7
20260902220503 93 3 2.0 5.0 0.00 0.00 0.00 46 1016.7
20260902220024 93 7 0.0 7.0 0.00 0.00 0.00 45 1016.7
20260902215503 93 9 4.0 7.0 0.00 0.00 0.00 42 1016.8
20260902215024 93 20 3.0 7.0 0.00 0.00 0.00 44 1016.8
20260902214525 93 1 0.0 7.0 0.00 0.00 0.00 45 1016.7
20260902214003 94 4 4.0 7.0 0.00 0.00 0.00 43 1016.7
20260902213502 94 347 0.0 7.0 0.00 0.00 0.00 43 1016.8
20260902213002 94 360 4.0 8.0 0.00 0.00 0.00 45 1016.8
20260902212503 95 16 5.0 8.0 0.00 0.00 0.00 43 1016.9
20260902212002 95 31 3.0 9.0 0.00 0.00 0.00 44 1016.9
20260902211503 95 33 6.0 12.0 0.00 0.00 0.00 43 1016.9
20260902211002 95 25 6.0 12.0 0.00 0.00 0.00 45 1017.0
20260902210503 95 14 5.0 9.0 0.00 0.00 0.00 43 1017.0
20260902210003 95 30 6.0 9.0 0.00 0.00 0.00 43 1017.0
20260902205503 95 25 4.0 10.0 0.00 0.00 0.00 42 1017.2
20260902205003 96 23 7.0 10.0 0.00 0.00 0.00 41 1017.1
20260902204503 96 351 2.0 9.0 0.00 0.00 0.00 43 1017.1
20260902204003 96 37 2.0 9.0 0.00 0.00 0.00 41 1017.2
20260902203502 97 223 2.0 9.0 0.00 0.00 0.00 42 1017.2
20260902203003 97 203 3.0 7.0 0.00 0.00 0.00 43 1017.2
20260902202502 96 1 1.0 4.0 0.00 0.00 0.00 41 1017.2
20260902202002 97 249 2.0 3.0 0.00 0.00 0.00 45 1017.2
20260902201502 97 4 1.0 5.0 0.00 0.00 0.00 42 1017.2
20260902201004 97 4 2.0 7.0 0.00 0.00 0.00 39 1017.3
20260902200503 97 17 4.0 7.0 0.00 0.00 0.00 40 1017.3
20260902200002 98 237 1.0 4.0 0.00 0.00 0.00 42 1017.3
20260902195504 97 205 2.0 7.0 0.00 0.00 0.00 41 1017.4
20260902195004 97 6 5.0 7.0 0.00 0.00 0.00 43 1017.5
20260902194502 96 347 2.0 4.0 0.00 0.00 0.00 42 1017.5
20260902194003 96 1 2.0 10.0 0.00 0.00 0.00 41 1017.5
20260902193503 95 26 6.0 10.0 0.00 0.00 0.00 41 1017.5
20260902193003 96 32 6.0 9.0 0.00 0.00 0.00 41 1017.7
20260902192503 96 37 4.0 7.0 0.00 0.00 0.00 41 1017.7
20260902192003 97 286 2.0 8.0 0.00 0.00 0.00 41 1017.7
20260902191504 97 26 1.0 8.0 0.00 0.00 0.00 42 1017.8
20260902191003 96 19 3.0 10.0 0.00 0.00 0.00 42 1017.9
20260902190502 96 24 2.0 10.0 0.00 0.00 0.00 46 1017.8
20260902190002 96 30 4.0 10.0 0.00 0.00 0.00 42 1017.9
20260902185503 96 30 5.0 10.0 0.00 0.00 0.00 44 1017.9
20260902185003 95 12 5.0 13.0 0.00 0.00 0.00 45 1018.0
20260902184503 96 26 8.0 13.0 0.00 0.00 0.00 42 1018.0
20260902184024 97 144 2.0 6.0 0.00 0.00 0.00 45 1018.0
20260902183545 96 2 2.0 6.0 0.00 0.00 0.00 47 1018.1
20260902183003 96 284 2.0 4.0 0.00 0.00 0.00 44 1018.3
20260902182504 96 359 1.0 6.0 0.00 0.00 0.00 45 1018.2
20260902182004 97 356 2.0 6.0 0.00 0.00 0.00 45 1018.2
20260902181525 96 58 1.0 6.0 0.00 0.00 0.00 43 1018.2
20260902181004 94 6 2.0 9.0 0.00 0.00 0.00 44 1018.2
20260902180525 94 57 2.0 11.0 0.00 0.00 0.00 50 1018.3
20260902180005 93 6 5.0 13.0 0.00 0.00 0.00 47 1018.4
20260902175504 95 39 7.0 13.0 0.00 0.00 0.00 44 1018.3
20260902175003 94 33 6.0 13.0 0.00 0.00 0.00 47 1018.3
20260902174504 94 17 5.0 11.0 0.00 0.00 0.00 47 1018.3
20260902174024 95 13 4.0 9.0 0.00 0.00 0.00 48 1018.4
20260902173504 94 196 2.0 7.0 0.00 0.00 0.00 48 1018.5
20260902173004 94 337 2.0 11.0 0.00 0.00 0.00 45 1018.6
20260902172502 94 6 6.0 11.0 0.00 0.00 0.00 45 1018.7
20260902172024 94 36 3.0 6.0 0.00 0.00 0.00 45 1018.6
20260902171524 95 249 2.0 5.0 0.00 0.00 0.00 45 1018.7
20260902171003 94 288 2.0 7.0 0.00 0.00 0.00 52 1018.7
20260902170503 94 10 4.0 11.0 0.00 0.00 0.00 49 1018.7
20260902170023 93 37 3.0 11.0 0.00 0.00 0.00 50 1018.8
20260902165503 93 16 6.0 12.0 0.00 0.00 0.00 48 1019.0
20260902165004 93 20 9.0 12.0 0.00 0.00 0.00 48 1019.0
20260902164524 93 357 3.0 10.0 0.00 0.00 0.00 50 1019.0
20260902164003 93 32 2.0 10.0 0.00 0.00 0.00 51 1019.1
20260902163504 92 43 4.0 12.0 0.00 0.00 0.00 49 1019.0
20260902163002 93 41 6.0 12.0 0.00 0.00 0.00 50 1019.1
20260902162504 93 23 5.0 11.0 0.00 0.00 0.00 50 1019.1
20260902162004 94 16 4.0 10.0 0.00 0.00 0.00 51 1019.1
20260902161504 93 23 3.0 10.0 0.00 0.00 0.00 52 1019.1
20260902161003 92 91 1.0 7.0 0.00 0.00 0.00 51 1019.2
20260902160503 92 314 2.0 6.0 0.00 0.00 0.00 52 1019.3
20260902160004 92 2 3.0 6.0 0.00 0.00 0.00 52 1019.2
20260902155504 92 290 2.0 5.0 0.00 0.00 0.00 55 1019.2
20260902155004 91 15 3.0 6.0 0.00 0.00 0.00 55 1019.2
20260902154504 91 317 2.0 7.0 0.00 0.00 0.00 55 1019.2
20260902154024 91 302 1.0 7.0 0.00 0.00 0.00 56 1019.3
20260902153525 91 33 4.0 7.0 0.00 0.00 0.00 55 1019.4
20260902153003 91 37 4.0 11.0 0.00 0.00 0.00 55 1019.5
20260902152503 91 30 4.0 11.0 0.00 0.00 0.00 53 1019.4
20260902152024 91 17 4.0 7.0 0.00 0.00 0.00 55 1019.4
20260902151503 92 50 1.0 10.0 0.00 0.00 0.00 51 1019.3
20260902151004 91 38 5.0 10.0 0.00 0.00 0.00 53 1019.2
20260902150525 91 13 3.0 7.0 0.00 0.00 0.00 57 1019.3
20260902150003 90 22 4.0 7.0 0.00 0.00 0.00 56 1019.3
20260902145525 89 43 4.0 7.0 0.00 0.00 0.00 57 1019.4
20260902145003 89 36 1.0 7.0 0.00 0.00 0.00 62 1019.4
20260902144504 88 347 2.0 7.0 0.00 0.00 0.00 61 1019.3
20260902144024 88 2 3.0 5.0 0.00 0.00 0.00 60 1019.4
20260902143504 88 5 2.0 7.0 0.00 0.00 0.00 61 1019.5
20260902143003 89 8 2.0 7.0 0.00 0.00 0.00 62 1019.4
20260902142504 88 10 4.0 7.0 0.00 0.00 0.00 65 1019.4
20260902142004 88 356 2.0 6.0 0.00 0.00 0.00 65 1019.4
20260902141504 87 354 3.0 7.0 0.00 0.00 0.00 63 1019.3
20260902141003 87 39 2.0 7.0 0.00 0.00 0.00 67 1019.3
20260902140504 87 30 3.0 9.0 0.00 0.00 0.00 63 1019.2
20260902140003 86 38 4.0 9.0 0.00 0.00 0.00 64 1019.3
20260902135504 86 31 3.0 7.0 0.00 0.00 0.00 64 1019.2
20260902135025 86 19 4.0 7.0 0.00 0.00 0.00 65 1019.2
20260902134525 86 37 1.0 7.0 0.00 0.00 0.00 69 1019.3
20260902134003 85 31 3.0 7.0 0.00 0.00 0.00 69 1019.2
20260902133503 84 31 5.0 7.0 0.00 0.00 0.00 67 1019.3
20260902133024 84 23 4.0 7.0 0.00 0.00 0.00 68 1019.4
20260902132525 84 32 3.0 7.0 0.00 0.00 0.00 68 1019.3
20260902132003 84 14 5.0 7.0 0.00 0.00 0.00 68 1019.4
20260902131503 83 26 3.0 6.0 0.00 0.00 0.00 70 1019.4
20260902131003 83 14 4.0 6.0 0.00 0.00 0.00 71 1019.4
20260902130503 82 11 3.0 6.0 0.00 0.00 0.00 74 1019.4
20260902130024 82 356 2.0 4.0 0.00 0.00 0.00 72 1019.4
20260902125503 81 356 2.0 3.0 0.00 0.00 0.00 78 1019.5
20260902125024 80 356 1.0 2.0 0.00 0.00 0.00 79 1019.5
20260902124525 79 356 0.0 2.0 0.00 0.00 0.00 84 1019.3
20260902124004 78 0 0.0 2.0 0.00 0.00 0.00 86 1019.3
20260902123525 78 0 0.0 2.0 0.00 0.00 0.00 87 1019.3
20260902123003 77 356 0.0 1.0 0.00 0.00 0.00 87 1019.3
20260902122524 77 0 0.0 1.0 0.00 0.00 0.00 89 1019.4
20260902122003 76 356 0.0 2.0 0.00 0.00 0.00 89 1019.4
20260902121524 76 356 1.0 2.0 0.00 0.00 0.00 91 1019.2
20260902121004 76 356 0.0 2.0 0.00 0.00 0.00 91 1019.3
20260902120503 75 356 1.0 2.0 0.00 0.00 0.00 91 1019.3
20260902120003 75 356 1.0 2.0 0.00 0.00 0.00 92 1019.3
20260902115504 74 0 0.0 2.0 0.00 0.00 0.00 92 1019.2
20260902115003 74 356 1.0 2.0 0.00 0.00 0.00 92 1019.2
20260902114504 74 0 0.0 0.0 0.00 0.00 0.00 92 1019.1
20260902114003 74 0 0.0 1.0 0.00 0.00 0.00 92 1019.2
20260902113503 74 0 0.0 2.0 0.00 0.00 0.00 92 1019.2
20260902113003 74 0 0.0 2.0 0.00 0.00 0.00 92 1019.1
20260902112525 73 356 0.0 2.0 0.00 0.00 0.00 92 1019.0
20260902112003 73 356 0.0 2.0 0.00 0.00 0.00 92 1019.0
20260902111503 73 0 0.0 2.0 0.00 0.00 0.00 92 1018.9
20260902111024 73 356 0.0 2.0 0.00 0.00 0.00 92 1018.9
20260902110504 73 356 1.0 2.0 0.00 0.00 0.00 92 1018.9
20260902110004 73 356 0.0 1.0 0.00 0.00 0.00 92 1019.0
20260902105503 73 0 0.0 2.0 0.00 0.00 0.00 92 1019.0
20260902105003 73 356 0.0 2.0 0.00 0.00 0.00 92 1019.0
20260902104503 74 356 0.0 2.0 0.00 0.00 0.00 92 1019.0
20260902104004 74 356 0.0 2.0 0.00 0.00 0.00 92 1019.1
20260902103503 73 0 0.0 1.0 0.00 0.00 0.00 92 1018.9
20260902103003 73 356 0.0 2.0 0.00 0.00 0.00 92 1019.0
20260902102503 74 0 0.0 2.0 0.00 0.00 0.00 92 1018.8
20260902102004 74 356 1.0 2.0 0.00 0.00 0.00 92 1018.7
20260902101503 74 356 0.0 2.0 0.00 0.00 0.00 92 1018.8
20260902101003 74 356 0.0 2.0 0.00 0.00 0.00 92 1018.7
20260902100503 74 356 1.0 2.0 0.00 0.00 0.00 92 1018.5
20260902100004 74 356 1.0 2.0 0.00 0.00 0.00 92 1018.5
20260902095504 74 356 2.0 2.0 0.00 0.00 0.00 92 1018.5
20260902095003 74 356 1.0 2.0 0.00 0.00 0.00 92 1018.5
20260902094524 74 356 2.0 2.0 0.00 0.00 0.00 92 1018.5
20260902094004 74 0 0.0 0.0 0.00 0.00 0.00 92 1018.4
20260902093525 74 0 0.0 0.0 0.00 0.00 0.00 92 1018.4
20260902093004 74 0 0.0 0.0 0.00 0.00 0.00 92 1018.4
20260902092503 74 0 0.0 2.0 0.00 0.00 0.00 92 1018.4
20260902092003 74 0 0.0 2.0 0.00 0.00 0.00 92 1018.5
20260902091503 74 356 1.0 2.0 0.00 0.00 0.00 92 1018.3
20260902091003 74 356 1.0 2.0 0.00 0.00 0.00 92 1018.4
20260902090504 74 356 1.0 2.0 0.00 0.00 0.00 92 1018.2
20260902090003 74 0 0.0 0.0 0.00 0.00 0.00 92 1018.2
20260902085503 74 0 0.0 0.0 0.00 0.00 0.00 92 1018.1
20260902085004 74 0 0.0 1.0 0.00 0.00 0.00 92 1018.1
20260902084503 74 0 0.0 1.0 0.00 0.00 0.00 92 1018.1
20260902084004 74 356 0.0 1.0 0.00 0.00 0.00 92 1018.2
20260902083503 74 0 0.0 2.0 0.00 0.00 0.00 92 1018.0
20260902083003 75 356 0.0 2.0 0.00 0.00 0.00 92 1018.1
20260902082504 75 356 1.0 2.0 0.00 0.00 0.00 92 1018.1
20260902082003 75 356 1.0 2.0 0.00 0.00 0.00 92 1018.1
20260902081503 75 0 0.0 1.0 0.00 0.00 0.00 92 1018.0
20260902081024 75 0 0.0 1.0 0.00 0.00 0.00 92 1017.8
20260902080503 75 0 0.0 1.0 0.00 0.00 0.00 92 1017.9
20260902080005 75 0 0.0 2.0 0.00 0.00 0.00 91 1018.0
20260902075504 75 356 1.0 2.0 0.00 0.00 0.00 92 1018.0
20260902075004 75 356 1.0 2.0 0.00 0.00 0.00 92 1017.8
20260902074504 75 356 0.0 1.0 0.00 0.00 0.00 91 1017.9
20260902074003 75 0 0.0 0.0 0.00 0.00 0.00 91 1017.9
20260902073504 75 0 0.0 0.0 0.00 0.00 0.00 91 1017.9
20260902073004 75 0 0.0 0.0 0.00 0.00 0.00 91 1017.8
20260902072504 75 0 0.0 0.0 0.00 0.00 0.00 91 1017.9